Terug naar catalogus

BREEZE-KM DEB

ActiefPO
NORAD 41719·DEBRIS·🇷🇺 Russia

Gelanceerd Mar 31, 2015 vanaf Plesetsk Cosmodrome

Loading…

Volgende Passages (komende 24 uur)

TLE

VersSource: Space-Track

Epoch: Sep 14, 2026, 05:11 UTC

1 41719U 15020G   26257.21622444 -.00000003  00000-0 -52474-4 0  9998
2 41719  82.4951 174.4086 0220797 286.8695  70.8298 12.75195190523806

Volg BREEZE-KM DEB in realtime met AllMySat

Download on the App Store